Fort Worth, TX

2:41 AM CDT on May 26, 2017 (GMT -0500)
Fort Worth Meacham International

Weather History for KFTW - May, 2013

Change the Weather History Date:

Friday, May 31, 2013

  Actual Average Record
Temperature  
Mean Temperature 82 °F -  
Max Temperature 91 °F 86 °F 100 °F (1998)
Min Temperature 75 °F 66 °F 60 °F (1997)
Cooling Degree Days 18    
Growing Degree Days 32 (Base 50)    
Moisture  
Dew Point 73 °F    
Average Humidity 77    
Maximum Humidity 94    
Minimum Humidity 57    
Precipitation  
Precipitation 0.00 in - - ()
Sea Level Pressure  
Sea Level Pressure 29.74 in    
Wind  
Wind Speed 18 mph (South)    
Max Wind Speed 22 mph    
Max Gust Speed 32 mph    
Visibility 10 miles    
Events      
Averages and records for this station are not official NWS values.
T = Trace of Precipitation, MM = Missing Value Source: NWS Daily Summary

Daily Weather History Graph

Daily Weather History Graph

Search for Another Location

Airport or City:

Trip Planner

Search our weather history database for the weather conditions in past years. The results will help you decide how hot, cold, wet, or windy it might be!

Date:

Astronomy

May. 31, 2013 Rise Set
Actual Time 6:22 AM CDT 8:32 PM CDT
Civil Twilight 5:54 AM CDT 9:00 PM CDT
Nautical Twilight 5:19 AM CDT 9:34 PM CDT
Astronomical Twilight 4:42 AM CDT 10:11 PM CDT
Moon 1:22 AM CDT (5/31) 1:22 PM CDT (5/31)
Length of Visible Light 15h 06m
Length of Day
14h 09m
Waning Gibbous, 51% of the Moon is Illuminated
May 31
Waning Gibbous
May 31
Last Quarter
Jun 8
New
Jun 16
First Quarter
Jun 23
Full

Hourly Weather History & Observations

Time (CDT) Temp. Heat Index Dew Point Humidity Pressure Visibility Wind Dir Wind Speed Gust Speed Precip Events Conditions
12:53 AM 80.1 °F 83.8 °F 72.0 °F 76% 29.74 in 10.0 mi South 21.9 mph 28.8 mph N/A   Clear
1:53 AM 79.0 °F - 72.0 °F 79% 29.73 in 10.0 mi South 21.9 mph 32.2 mph N/A   Clear
2:53 AM 77.0 °F - 72.0 °F 84% 29.72 in 10.0 mi South 19.6 mph 27.6 mph N/A   Clear
3:53 AM 75.9 °F - 72.0 °F 87% 29.72 in 10.0 mi South 17.3 mph 26.5 mph N/A   Scattered Clouds
4:20 AM 75.2 °F - 71.6 °F 89% 29.76 in 10.0 mi South 19.6 mph 25.3 mph N/A   Mostly Cloudy
4:53 AM 75.9 °F - 72.0 °F 87% 29.73 in 10.0 mi South 19.6 mph 26.5 mph N/A   Overcast
5:53 AM 75.9 °F - 72.0 °F 87% 29.75 in 10.0 mi South 19.6 mph 29.9 mph N/A   Overcast
6:53 AM 75.9 °F - 72.0 °F 87% 29.77 in 10.0 mi South 11.5 mph - N/A   Overcast
7:04 AM 75.2 °F - 71.6 °F 89% 29.80 in 10.0 mi South 13.8 mph 20.7 mph N/A   Overcast
7:21 AM 75.2 °F - 73.4 °F 94% 29.81 in 10.0 mi South 13.8 mph 23.0 mph N/A   Overcast
7:42 AM 75.2 °F - 73.4 °F 94% 29.81 in 10.0 mi South 10.4 mph - N/A   Overcast
7:53 AM 75.9 °F - 73.0 °F 91% 29.79 in 10.0 mi South 13.8 mph 21.9 mph N/A   Overcast
8:50 AM 78.8 °F - 73.4 °F 83% 29.82 in 10.0 mi South 17.3 mph 23.0 mph N/A   Overcast
8:53 AM 78.1 °F - 73.0 °F 84% 29.80 in 10.0 mi South 19.6 mph 24.2 mph N/A   Overcast
9:53 AM 79.0 °F - 73.0 °F 82% 29.79 in 10.0 mi South 15.0 mph 23.0 mph N/A   Overcast
10:14 AM 80.6 °F 85.4 °F 73.4 °F 79% 29.82 in 10.0 mi South 16.1 mph 24.2 mph N/A   Overcast
10:50 AM 80.6 °F 85.4 °F 73.4 °F 79% 29.81 in 10.0 mi South 18.4 mph 25.3 mph N/A   Overcast
10:53 AM 80.1 °F 84.2 °F 73.0 °F 79% 29.78 in 10.0 mi South 16.1 mph 25.3 mph N/A   Overcast
11:53 AM 82.9 °F 88.8 °F 73.0 °F 72% 29.78 in 10.0 mi South 19.6 mph 28.8 mph N/A   Overcast
12:53 PM 87.1 °F 95.4 °F 73.9 °F 65% 29.76 in 10.0 mi South 15.0 mph 24.2 mph N/A   Mostly Cloudy
1:53 PM 89.1 °F 98.0 °F 73.9 °F 61% 29.74 in 10.0 mi South 18.4 mph 26.5 mph N/A   Mostly Cloudy
2:53 PM 90.0 °F 100.2 °F 75.0 °F 61% 29.71 in 10.0 mi SSE 19.6 mph 25.3 mph N/A   Scattered Clouds
3:53 PM 90.0 °F 97.9 °F 73.0 °F 57% 29.70 in 10.0 mi SSE 19.6 mph 27.6 mph N/A   Clear
4:53 PM 90.0 °F 97.9 °F 73.0 °F 57% 29.69 in 10.0 mi South 18.4 mph 26.5 mph N/A   Clear
5:53 PM 89.1 °F 96.0 °F 72.0 °F 57% 29.67 in 10.0 mi South 20.7 mph 27.6 mph N/A   Clear
6:53 PM 87.1 °F 93.6 °F 72.0 °F 61% 29.65 in 10.0 mi South 19.6 mph 28.8 mph N/A   Clear
7:53 PM 84.9 °F 91.4 °F 73.0 °F 67% 29.65 in 10.0 mi South 21.9 mph 27.6 mph N/A   Partly Cloudy
8:53 PM 84.0 °F 89.6 °F 72.0 °F 67% 29.65 in 10.0 mi South 17.3 mph 25.3 mph N/A   Clear
9:53 PM 84.0 °F 89.6 °F 72.0 °F 67% 29.68 in 10.0 mi South 17.3 mph 27.6 mph N/A   Clear
10:53 PM 82.0 °F 87.4 °F 73.0 °F 74% 29.68 in 10.0 mi SSE 16.1 mph - N/A   Clear
11:53 PM 81.0 °F 85.8 °F 73.0 °F 77% 29.68 in 10.0 mi South 17.3 mph - N/A   Clear